User: anonymous   Login
Location: Unspecified
(0.0000°N, 0.0000°E)
Time: 18:01:43
(UTC+00:00)
Language:

STARLINK-34078 - Orbit

View from above orbital plane
View from above orbital plane
View from above satellite
View from above satellite

Ground track
Ground track

The orbit is defined by the following mean orbital elements,

1 64012U          26145.42219284 +.00000000 +00000-0 +77718-3 0 00009
2 64012  42.9995 284.3414 0000671 292.1305  67.9476 15.27591404    02
Epoch (UTC): 25 May 2026 10:07:57
Eccentricity: 0.0000671
inclination: 42.9995°
perigee height: 483 km
apogee height: 483 km
right ascension of ascending node: 284.3414°
argument of perigee: 292.1305°
revolutions per day: 15.27591404
mean anomaly at epoch: 67.9476°

The dashed part of the orbit path shows where the satellite is in the earth's shadow,  

DLR